GW4151 Weather Reports


time (UTC)temp
F
wind
direction
speed
knots
gust
knots
rain 1hr
in
rain 24hr
in
rain mn
in
humidity
%
barometer
mb
20260902065854 78 219 1.7 1.7 0.00 0.00 0.00 92 993.9
20260902064353 78 213 0.9 1.7 0.00 0.00 0.00 93 993.7
20260902062848 77 224 0.0 0.9 0.00 0.00 0.00 95 993.8
20260902061348 77 234 0.0 0.0 0.00 0.00 0.00 96 993.7
20260902055847 77 195 0.0 0.0 0.00 0.00 0.00 96 993.7
20260902054346 76 186 0.0 0.0 0.00 0.00 0.00 98 993.5
20260902052841 76 197 0.0 0.0 0.00 0.00 0.00 98 993.6
20260902051337 77 178 0.0 0.0 0.00 0.00 0.00 97 993.6
20260902045838 77 192 0.0 0.0 0.00 0.00 0.00 97 993.8
20260902044337 77 172 0.0 2.6 0.00 0.00 0.00 96 993.9
20260902042832 77 158 1.7 2.6 0.00 0.00 0.00 96 993.7
20260902041327 76 166 0.0 0.0 0.00 0.00 0.00 95 993.8
20260902035826 75 232 2.6 2.6 0.00 0.01 0.01 97 993.7
20260902034322 74 212 0.9 0.9 0.00 0.00 0.00 97 994.1
20260902032820 74 182 0.0 0.0 0.00 0.00 0.00 98 994.0
20260902031317 74 142 0.0 0.0 0.00 0.00 0.00 98 993.8
20260902025812 74 128 0.0 0.0 0.00 0.00 0.00 98 993.9
20260902024309 74 166 0.0 0.0 0.00 0.00 0.00 97 994.0
20260902022805 74 171 0.0 0.0 0.00 0.00 0.00 97 994.1
20260902021302 74 180 0.0 0.0 0.00 0.00 0.00 97 994.1
20260902015801 74 182 0.0 0.9 0.00 0.00 0.00 97 994.0
20260902014302 74 174 0.0 0.0 0.00 0.00 0.00 96 993.9
20260902012757 75 172 0.0 0.0 0.00 0.00 0.00 96 993.9
20260902011254 75 191 0.0 0.0 0.00 0.00 0.00 96 993.7
20260902005753 75 170 0.0 0.0 0.00 0.00 0.00 95 993.4
20260902004250 75 159 0.0 0.0 0.00 0.00 0.00 95 993.1
20260902002748 76 186 0.0 0.9 0.00 0.00 0.00 94 993.2
20260902001243 76 205 0.9 0.9 0.00 0.00 0.00 92 993.5
20260901235738 76 221 0.0 0.9 0.00 0.00 0.00 91 994.1
20260901234233 77 242 0.9 2.6 0.00 0.00 0.00 90 994.1
20260901232730 78 274 4.3 5.2 0.00 0.00 0.00 87 993.9
20260901231229 80 173 2.6 5.2 0.00 0.00 0.00 85 994.3
20260901225726 80 208 2.6 5.2 0.00 0.00 0.00 86 994.5
20260901224224 81 228 0.9 1.7 0.00 0.00 0.00 85 994.0
20260901222722 81 196 0.9 3.5 0.00 0.00 0.00 84 994.0
20260901221221 82 178 0.9 3.5 0.00 0.00 0.00 83 993.6
20260901215719 83 200 2.6 5.2 0.00 0.00 0.00 82 994.5
20260901214217 83 241 1.7 5.2 0.00 0.00 0.00 81 994.3
20260901212718 83 278 4.3 5.2 0.00 0.00 0.00 79 994.4
20260901211216 84 237 2.6 3.5 0.00 0.00 0.00 77 994.4
20260901205714 86 239 5.2 7.8 0.00 0.00 0.00 75 994.3
20260901204211 86 298 5.2 7.0 0.00 0.00 0.00 75 994.1
20260901202706 87 259 2.6 7.0 0.00 0.00 0.00 74 994.0
20260901201203 88 257 7.0 8.7 0.00 0.00 0.00 73 994.1
20260901195701 87 236 4.3 5.2 0.00 0.00 0.00 76 994.0
20260901194158 89 224 6.1 8.7 0.00 0.00 0.00 74 993.9
20260901192654 90 255 2.6 7.8 0.00 0.00 0.00 73 993.9
20260901191153 88 178 1.7 5.2 0.00 0.00 0.00 75 993.9
20260901185653 88 202 2.6 3.5 0.00 0.00 0.00 75 994.3
20260901184148 86 267 3.5 6.1 0.00 0.00 0.00 78 994.6
20260901182646 86 187 2.6 3.5 0.00 0.00 0.00 78 994.4
20260901181145 84 215 2.6 3.5 0.00 0.00 0.00 81 994.1
20260901175644 84 197 0.9 3.5 0.00 0.00 0.00 81 994.4
20260901174142 83 257 2.6 8.7 0.00 0.00 0.00 82 995.1
20260901172639 85 239 1.7 5.2 0.00 0.00 0.00 79 994.9
20260901171136 86 285 2.6 7.0 0.00 0.00 0.00 77 994.8
20260901165636 85 199 1.7 7.0 0.00 0.00 0.00 79 994.7
20260901164134 84 244 3.5 5.2 0.00 0.00 0.00 81 994.5
20260901162630 85 279 4.3 7.0 0.00 0.00 0.00 80 994.6
20260901161127 86 234 2.6 3.5 0.00 0.00 0.00 79 994.5
20260901155623 85 293 4.3 6.1 0.00 0.00 0.00 80 994.5
20260901154120 83 264 3.5 5.2 0.00 0.00 0.00 81 994.7
20260901152616 85 279 1.7 3.5 0.00 0.00 0.00 79 994.5
20260901151115 84 282 3.5 7.0 0.00 0.00 0.00 80 994.4
20260901145612 82 264 2.6 5.2 0.00 0.00 0.00 82 994.5
20260901144108 82 207 0.9 2.6 0.00 0.00 0.00 83 994.7
20260901142607 83 257 3.5 7.0 0.00 0.00 0.00 82 994.8
20260901141102 82 171 0.9 2.6 0.00 0.00 0.00 84 994.6
20260901135600 81 190 2.6 6.1 0.00 0.00 0.00 84 994.5
20260901134058 81 223 1.7 2.6 0.00 0.00 0.00 84 994.6
20260901132556 79 185 0.0 1.7 0.00 0.00 0.00 87 994.6
20260901131057 78 186 0.0 2.6 0.00 0.00 0.00 87 994.5
20260901125554 76 181 1.7 1.7 0.00 0.00 0.00 91 994.4
20260901124050 74 189 1.7 2.6 0.00 0.00 0.00 94 994.5
20260901122549 73 177 0.9 2.6 0.00 0.00 0.00 94 994.3
20260901121044 73 209 0.0 1.7 0.00 0.00 0.00 95 994.2
20260901115541 72 185 0.0 1.7 0.00 0.00 0.00 96 994.1
20260901114038 72 218 0.0 0.0 0.00 0.00 0.00 97 994.0
20260901112538 72 197 0.0 1.7 0.00 0.00 0.00 97 993.7
20260901111036 72 210 0.0 1.7 0.00 0.00 0.00 97 993.7
20260901105531 72 239 0.0 1.7 0.00 0.00 0.00 97 993.8
20260901104027 72 192 1.7 2.6 0.00 0.00 0.00 96 993.6
20260901102523 72 228 0.9 1.7 0.00 0.00 0.00 97 993.7
20260901101019 72 193 1.7 1.7 0.00 0.00 0.00 97 993.6
20260901095517 72 187 0.9 0.9 0.00 0.00 0.00 98 993.5
20260901094015 72 178 0.0 0.0 0.00 0.00 0.00 98 993.5
20260901092512 72 188 0.0 0.0 0.00 0.00 0.00 98 993.6
20260901091009 72 194 0.0 0.0 0.00 0.00 0.00 98 993.5
20260901085506 72 197 0.0 0.0 0.00 0.00 0.00 97 993.3
20260901084006 73 193 0.0 0.9 0.00 0.00 0.00 96 993.2
20260901082505 73 214 0.0 0.9 0.00 0.00 0.00 96 993.4
20260901081002 73 195 0.0 0.0 0.00 0.00 0.00 96 993.5
20260901075457 74 191 0.0 0.0 0.00 0.00 0.00 96 993.4
20260901073952 74 187 0.9 2.6 0.00 0.00 0.00 95 993.3
20260901072449 74 190 0.9 0.9 0.00 0.00 0.00 95 993.3
20260901070949 75 188 0.0 1.7 0.00 0.00 0.00 94 993.2